Location: Ceske Budejovice
(48.9830°N, 14.4670°E)
Time: 18:30:43
(UTC+02:00)

ISS - Pass Details

Date: 07 July 2022
Orbit: 412 x 419 km, 51.6° (Epoch: 09 August)

Event Time Altitude Azimuth Distance (km) Brightness Sun altitude
Exits shadow 03:20:57 - 272° (W) 1,888 -0.7 -12.4°
Reaches altitude 10° 03:21:55 10° 275° (W) 1,496 -1.2 -12.4°
Maximum altitude 03:25:14 54° 354° (N) 516 -3.0 -12.1°
Drops below altitude 10° 03:28:32 10° 73° (ENE) 1,502 -0.2 -11.8°
Sets 03:30:41 0° 78° (ENE) 2,369 0.8 -11.6°
